Stations météo

Publicité
Winterbourne No 2, Grande-Bretagne (99062): Température de l'air & dewpoint: 18.01.2021 05:00:00 - 24.01.2021 05:00:00 (GMT)Winterbourne No 2, Grande-Bretagne (99062): Température de l'air -20cm & Température de l'air -100cm: 18.01.2021 05:00:00 - 24.01.2021 05:00:00 (GMT)Winterbourne No 2, Grande-Bretagne (99062): Quantités de précipitations: 18.01.2021 05:00:00 - 24.01.2021 05:00:00 (GMT)
Date & Time tt [°C] td [°C] tt -20cm [°C] tt -100cm [°C] rr [mm]
24.01.2021 05:00:00 -2,1 -2,4 - - 0,0
24.01.2021 04:00:00 -2,2 -2,4 - - 0,0
24.01.2021 03:00:00 -2,6 -3,0 - - 0,0
24.01.2021 02:00:00 -1,9 -2,3 - - 0,0
24.01.2021 01:00:00 -1,8 -2,1 - - 0,0
24.01.2021 00:00:00 -1,7 -2,3 - - 0,0
23.01.2021 23:00:00 -1,3 -2,2 - - 0,0
23.01.2021 22:00:00 -1,2 -1,7 - - 0,0
23.01.2021 21:00:00 -1,5 -1,8 - - 0,0
23.01.2021 20:00:00 -1,0 -1,4 - - 0,0
23.01.2021 19:00:00 -0,3 -0,7 - - 0,0
23.01.2021 18:00:00 0,1 -0,3 - - 0,0
23.01.2021 17:00:00 0,1 -0,9 - - 0,0
23.01.2021 16:00:00 1,7 -0,7 - - 0,4
23.01.2021 15:00:00 1,2 0,3 - - 1,6
23.01.2021 14:00:00 2,8 0,7 - - 1,2
23.01.2021 13:00:00 2,4 0,8 - - 0,6
23.01.2021 12:00:00 2,4 1,0 - - 0,2
23.01.2021 11:00:00 1,8 1,1 - - 0,0
23.01.2021 10:00:00 0,3 0,1 - - 0,0
23.01.2021 09:00:00 0,0 -0,1 5,2 6,9 0,0
23.01.2021 08:00:00 -1,0 -1,3 - - 0,0
23.01.2021 07:00:00 -0,2 -0,4 - - 0,0
23.01.2021 06:00:00 -0,1 -0,3 - - 0,0
23.01.2021 05:00:00 -0,5 -0,7 - - 0,0
23.01.2021 04:00:00 -1,1 -1,3 - - 0,0
23.01.2021 03:00:00 -1,1 -1,4 - - 0,0
23.01.2021 02:00:00 -1,3 -1,6 - - 0,0
23.01.2021 01:00:00 -0,5 -0,7 - - 0,0
23.01.2021 00:00:00 -0,3 -0,7 - - 0,0
22.01.2021 23:00:00 0,1 -0,2 - - 0,2
22.01.2021 22:00:00 0,3 -0,1 - - 0,2
22.01.2021 21:00:00 0,4 0,0 - - 0,4
22.01.2021 20:00:00 0,4 -0,3 - - 0,0
22.01.2021 19:00:00 1,3 0,1 - - 0,2
22.01.2021 18:00:00 3,1 1,8 - - 0,6
22.01.2021 17:00:00 4,6 1,7 - - 0,0
22.01.2021 16:00:00 5,3 1,1 - - 0,0
22.01.2021 15:00:00 5,7 0,9 - - 0,0
22.01.2021 14:00:00 6,2 1,4 - - 0,0
22.01.2021 13:00:00 6,6 1,8 - - 0,0
22.01.2021 12:00:00 6,0 1,6 - - 0,0
22.01.2021 11:00:00 4,6 1,4 - - 0,0
22.01.2021 10:00:00 2,8 1,0 - - 0,0
22.01.2021 09:00:00 1,3 0,3 5,7 6,9 0,0
22.01.2021 08:00:00 0,7 0,2 - - 0,0
22.01.2021 07:00:00 0,7 -0,3 - - 0,0
22.01.2021 06:00:00 1,7 0,2 - - 0,0
22.01.2021 05:00:00 1,8 0,5 - - 0,0
22.01.2021 04:00:00 1,6 0,1 - - 0,0
22.01.2021 03:00:00 2,5 0,6 - - 0,0
22.01.2021 02:00:00 2,2 0,4 - - 0,0
22.01.2021 01:00:00 2,1 0,5 - - 0,0
22.01.2021 00:00:00 1,7 0,1 - - 0,0
21.01.2021 23:00:00 1,7 0,0 - - 0,0
21.01.2021 22:00:00 2,2 0,3 - - 0,0
21.01.2021 21:00:00 2,2 0,6 - - 0,0
21.01.2021 20:00:00 2,5 0,5 - - 0,0
21.01.2021 19:00:00 3,1 0,5 - - 0,0
21.01.2021 18:00:00 3,9 0,4 - - 0,0
21.01.2021 17:00:00 4,2 0,7 - - 0,0
21.01.2021 16:00:00 5,2 0,4 - - 0,0
21.01.2021 15:00:00 5,7 0,9 - - 0,0
21.01.2021 14:00:00 5,3 0,8 - - 0,0
21.01.2021 13:00:00 5,8 1,5 - - 0,0
21.01.2021 12:00:00 5,2 1,3 - - 0,0
21.01.2021 11:00:00 4,7 1,3 - - 0,0
21.01.2021 10:00:00 3,9 1,3 - - 0,0
21.01.2021 09:00:00 4,0 1,1 6,5 6,7 0,0
21.01.2021 08:00:00 3,4 1,7 - - 0,2
21.01.2021 07:00:00 2,9 1,2 - - 0,2
21.01.2021 06:00:00 2,7 1,1 - - 0,0
21.01.2021 05:00:00 2,9 1,0 - - 0,0
21.01.2021 04:00:00 2,5 1,0 - - 0,0
21.01.2021 03:00:00 2,4 1,1 - - 0,0
21.01.2021 02:00:00 2,3 1,1 - - 0,0
21.01.2021 01:00:00 1,7 1,4 - - 1,0
21.01.2021 00:00:00 0,9 0,5 - - 1,0
20.01.2021 23:00:00 0,9 0,5 - - 3,0
20.01.2021 22:00:00 3,6 2,4 - - 6,4
20.01.2021 21:00:00 9,1 8,2 - - 0,6
20.01.2021 20:00:00 9,5 8,5 - - 0,4
20.01.2021 19:00:00 10,1 8,4 - - 0,0
20.01.2021 18:00:00 9,7 9,0 - - 0,6
20.01.2021 17:00:00 10,0 8,8 - - 0,0
20.01.2021 16:00:00 9,9 8,9 - - 0,6
20.01.2021 15:00:00 9,9 9,0 - - 0,4
20.01.2021 14:00:00 9,8 9,0 - - 0,4
20.01.2021 13:00:00 9,8 9,0 - - 1,4
20.01.2021 12:00:00 10,0 9,1 - - 0,0
20.01.2021 11:00:00 10,3 9,6 - - 0,2
20.01.2021 10:00:00 10,2 9,5 - - 0,8
20.01.2021 09:00:00 10,2 9,5 6,4 6,7 0,6
20.01.2021 08:00:00 10,6 10,1 - - 1,8
20.01.2021 07:00:00 10,5 10,0 - - 1,2
20.01.2021 06:00:00 10,4 9,9 - - 0,8
20.01.2021 05:00:00 10,5 9,9 - - 0,4
20.01.2021 04:00:00 10,5 10,0 - - 0,2
20.01.2021 03:00:00 10,2 9,6 - - 0,6
20.01.2021 02:00:00 10,4 9,9 - - 1,0
20.01.2021 01:00:00 10,3 9,9 - - 0,8
20.01.2021 00:00:00 10,2 9,7 - - 0,6
19.01.2021 23:00:00 10,0 9,5 - - 0,6
19.01.2021 22:00:00 9,8 9,3 - - 0,8
19.01.2021 21:00:00 9,6 9,0 - - 0,6
19.01.2021 20:00:00 9,5 8,6 - - 0,0
19.01.2021 19:00:00 9,2 8,5 - - 0,0
19.01.2021 18:00:00 9,1 8,4 - - 0,2
19.01.2021 17:00:00 8,9 8,1 - - 1,0
19.01.2021 16:00:00 9,2 8,0 - - 0,0
19.01.2021 15:00:00 9,3 7,7 - - 0,0
19.01.2021 14:00:00 9,7 7,6 - - 0,0
19.01.2021 13:00:00 10,3 7,0 - - 0,2
19.01.2021 12:00:00 10,6 6,9 - - 0,0
19.01.2021 11:00:00 10,9 8,2 - - 0,0
19.01.2021 10:00:00 10,4 8,0 - - 0,0
19.01.2021 09:00:00 10,4 8,5 5,7 6,7 0,0
19.01.2021 08:00:00 10,5 8,8 - - 0,0
19.01.2021 07:00:00 10,5 9,0 - - 0,0
19.01.2021 06:00:00 10,4 9,1 - - 0,0
19.01.2021 05:00:00 10,6 9,1 - - 0,2
19.01.2021 04:00:00 10,4 9,4 - - 0,4
19.01.2021 03:00:00 9,5 9,1 - - 0,6
19.01.2021 02:00:00 9,1 8,7 - - 1,2
19.01.2021 01:00:00 9,0 8,6 - - 1,2
19.01.2021 00:00:00 8,8 8,4 - - 0,0
18.01.2021 23:00:00 8,3 8,1 - - 0,0
18.01.2021 22:00:00 7,7 7,5 - - 0,4
18.01.2021 21:00:00 7,2 6,9 - - 1,4
18.01.2021 20:00:00 7,1 6,5 - - 0,0
18.01.2021 19:00:00 6,6 5,8 - - 0,0
18.01.2021 18:00:00 6,2 5,4 - - 0,0
18.01.2021 17:00:00 5,7 5,0 - - 0,0
18.01.2021 16:00:00 5,3 4,8 - - 0,0
18.01.2021 15:00:00 5,6 4,1 - - 0,0
18.01.2021 14:00:00 5,7 3,3 - - 0,0
18.01.2021 13:00:00 5,6 2,9 - - 0,0
18.01.2021 12:00:00 5,6 2,7 - - 0,0
18.01.2021 11:00:00 4,9 2,6 - - 0,0
18.01.2021 10:00:00 3,5 2,0 - - 0,0
18.01.2021 09:00:00 2,9 1,8 5,2 6,7 0,0
18.01.2021 08:00:00 2,7 1,8 - - 0,0
18.01.2021 07:00:00 2,9 1,7 - - 0,0
18.01.2021 06:00:00 3,3 2,2 - - 0,0
18.01.2021 05:00:00 2,2 1,8 - - 0,0

tt = Température de l'air
td = dewpoint
tt -20cm = Température de l'air -20cm
tt -100cm = Température de l'air -100cm
rr = Quantités de précipitations

stations d'obs. à proximité